This demonstration page uses our WeatherBlox Daily Observations layout. Learn more.

Left ArrowRight Arrow

39.12711, -84.51439

Hourly Observations for June 25, 2017

Temp ( °F °C ) Dew Point ( °F °C ) Humidity (%) Winds ( mph kmh ) Pressure ( in mb ) Visibility ( mi km ) Precip ( " mm )
12:53 am 00:53 Clear 66 18.9 52 11.1 61 61 WNW 5 7 30.10 1019 10 16 0.00 0.00
1:53 am 01:53 Clear 59 15 55 12.8 87 87 Calm 30.10 1019 10 16 0.00 0.00
2:53 am 02:53 Clear 59 15 56 13.3 90 90 Calm 30.10 1019 10 16 0.00 0.00
3:53 am 03:53 Clear 56 13.3 54 12.2 93 93 Calm 30.10 1019 10 16 0.00 0.00
4:53 am 04:53 Clear 55 12.8 54 12.2 96 96 Calm 30.10 1019 10 16 0.00 0.00
5:53 am 05:53 Clear 54 12.2 54 12.2 100 100 Calm 30.12 1020 10 16 0.00 0.00
6:48 am 06:48 Mostly Sunny 54 12 54 12 100 100 Calm 30.15 1021 10 16 0.00 0.00
6:53 am 06:53 Sunny 54 12.2 53 11.7 97 97 Calm 30.14 1021 10 16 0.00 0.00
7:53 am 07:53 Sunny 60 15.6 57 13.9 90 90 Calm 30.15 1021 10 16 0.00 0.00
8:53 am 08:53 Sunny 66 18.9 57 13.9 73 73 S 3 6 30.15 1021 10 16 0.00 0.00
9:53 am 09:53 Sunny 71 21.7 52 11.1 51 51 W 12 19 30.15 1021 10 16 0.00 0.00
10:53 am 10:53 Sunny 74 23.3 51 10.6 45 45 W 15 24 30.15 1021 10 16 0.00 0.00
11:53 am 11:53 Sunny 76 24.4 52 11.1 43 43 W 14 22 30.15 1021 10 16 0.00 0.00
12:53 pm 12:53 Sunny 77 25 52 11.1 42 42 W 14 22 30.14 1021 10 16 0.00 0.00
1:53 pm 13:53 Partly Cloudy 76 24.4 52 11.1 43 43 W 14 22 30.12 1020 10 16 0.00 0.00
2:53 pm 14:53 Mostly Cloudy 76 24.4 50 10 40 40 W 17 28 30.11 1020 10 16 0.00 0.00
3:53 pm 15:53 Partly Cloudy 77 25 51 10.6 40 40 WSW 18 30 30.10 1019 10 16 0.00 0.00
4:53 pm 16:53 Partly Cloudy 79 26.1 51 10.6 38 38 WNW 20 31 30.09 1019 10 16 0.00 0.00
5:53 pm 17:53 Mostly Sunny 75 23.9 50 10 41 41 W 10 17 30.08 1019 10 16 0.00 0.00
6:53 pm 18:53 Partly Cloudy 76 24.4 48 8.9 37 37 W 13 20 30.08 1019 10 16 0.00 0.00
7:53 pm 19:53 Mostly Sunny 75 23.9 49 9.4 40 40 WNW 8 13 30.09 1019 10 16 0.00 0.00
8:53 pm 20:53 Mostly Sunny 72 22.2 49 9.4 44 44 WNW 6 9 30.10 1019 10 16 0.00 0.00
9:53 pm 21:53 Clear 70 21.1 49 9.4 47 47 WNW 3 6 30.11 1020 10 16 0.00 0.00
10:53 pm 22:53 Clear 62 16.7 53 11.7 73 73 Calm 30.12 1020 10 16 0.00 0.00
11:53 pm 23:53 Partly Cloudy 59 15 54 12.2 83 83 Calm 30.13 1020 10 16 0.00 0.00

Powered by AerisWeather